Weather History for Weslaco, TX

Change the Weather History Date:

Thursday, February 20, 2014

  Actual Average (KMFE) Record (KMFE)
Temperature  
Mean Temperature 78 °F 66 °F  
Max Temperature 89 °F 76 °F 96 °F (1986)
Min Temperature 68 °F 55 °F 35 °F (1879)
Degree Days  
Heating Degree Days 0 3  
Month to date heating degree days 85  
Since 1 July heating degree days 512  
Cooling Degree Days 14 4  
Month to date cooling degree days 62  
Year to date cooling degree days 124  
Growing Degree Days 28 (Base 50)    
Moisture  
Dew Point 62 °F    
Average Humidity 62    
Maximum Humidity 83    
Minimum Humidity 35    
Precipitation  
Precipitation 0.00 in 0.03 in 0.45 in (1952)
Month to date precipitation 0.84  
Year to date precipitation 1.89  
Sea Level Pressure  
Sea Level Pressure 29.77 in    
Wind  
Wind Speed 17 mph (SSW)    
Max Wind Speed 26 mph    
Max Gust Speed 38 mph    
Visibility 8 miles    
Events      
T = Trace of Precipitation, MM = Missing Value Source: NWS Daily Summary

Daily Weather History Graph

Daily Weather History Graph

Search for Another Location

Airport:

Trip Planner

Search our weather history database for the weather conditions in past years. The results will help you decide how hot, cold, wet, or windy it might be!

Date:

Astronomy

Feb. 20, 2014 Rise Set
Actual Time 7:03 AM CST 6:28 PM CST
Civil Twilight 6:40 AM CST 6:51 PM CST
Nautical Twilight 6:13 AM CST 7:18 PM CST
Astronomical Twilight 5:46 AM CST 7:45 PM CST
Moon 11:46 PM CST (2/20) 10:21 AM CST (2/20)
Length of Visible Light 12h 11m
Length of Day
11h 24m
Waning Gibbous, 70% of the Moon is Illuminated
Feb 20
Waning Gibbous
Feb 22
Last Quarter
Mar 1
New
Mar 8
First Quarter
Mar 16
Full

Hourly Weather History & Observations

Time (CST) Temp. Heat Index Dew Point Humidity Pressure Visibility Wind Dir Wind Speed Gust Speed Precip Events Conditions
12:15 AM 71.8 °F - 65.3 °F 80% 29.77 in 10.0 mi South 18.4 mph 26.5 mph N/A   Overcast
12:35 AM 71.8 °F - 64.9 °F 79% 29.76 in 7.0 mi South 19.6 mph 27.6 mph N/A   Overcast
12:55 AM 72.0 °F - 64.9 °F 78% 29.75 in 7.0 mi South 19.6 mph 26.5 mph N/A   Overcast
1:15 AM 72.0 °F - 65.3 °F 79% 29.74 in 7.0 mi South 21.9 mph 28.8 mph N/A   Overcast
1:35 AM 72.5 °F - 65.3 °F 78% 29.73 in 7.0 mi South 21.9 mph 33.4 mph N/A   Overcast
1:55 AM 72.3 °F - 65.8 °F 80% 29.73 in 7.0 mi South 20.7 mph 31.1 mph N/A   Overcast
2:15 AM 72.7 °F - 65.7 °F 79% 29.73 in 10.0 mi South 20.7 mph 29.9 mph N/A   Overcast
2:35 AM 72.5 °F - 66.0 °F 80% 29.73 in 7.0 mi South 19.6 mph 29.9 mph N/A   Overcast
2:55 AM 72.5 °F - 65.8 °F 80% 29.73 in 7.0 mi South 17.3 mph 27.6 mph N/A   Overcast
3:15 AM 72.5 °F - 65.8 °F 80% 29.73 in 7.0 mi South 23.0 mph 29.9 mph N/A   Overcast
3:35 AM 72.7 °F - 65.3 °F 78% 29.72 in 7.0 mi South 21.9 mph 28.8 mph N/A   Overcast
3:55 AM 72.9 °F - 65.3 °F 77% 29.72 in 10.0 mi South 23.0 mph 29.9 mph N/A   Overcast
4:15 AM 72.7 °F - 64.9 °F 77% 29.71 in 10.0 mi South 20.7 mph 33.4 mph N/A   Overcast
4:35 AM 72.7 °F - 64.8 °F 76% 29.70 in 7.0 mi South 23.0 mph 32.2 mph N/A   Overcast
4:55 AM 72.0 °F - 64.6 °F 77% 29.70 in 7.0 mi South 19.6 mph 27.6 mph N/A   Scattered Clouds
5:15 AM 71.6 °F - 65.3 °F 80% 29.70 in 10.0 mi South 19.6 mph 28.8 mph N/A   Clear
5:35 AM 71.6 °F - 65.7 °F 81% 29.70 in 7.0 mi South 21.9 mph 28.8 mph N/A   Clear
5:55 AM 71.6 °F - 65.8 °F 82% 29.71 in 7.0 mi South 17.3 mph 25.3 mph N/A   Clear
6:15 AM 71.6 °F - 65.7 °F 81% 29.71 in 7.0 mi South 16.1 mph 25.3 mph N/A   Clear
6:35 AM 71.6 °F - 65.5 °F 81% 29.70 in 7.0 mi SSE 19.6 mph 27.6 mph N/A   Clear
6:55 AM 71.6 °F - 65.3 °F 80% 29.71 in 7.0 mi SSE 17.3 mph 34.5 mph N/A   Clear
7:15 AM 71.1 °F - 65.3 °F 82% 29.70 in 7.0 mi SSE 20.7 mph 27.6 mph N/A   Clear
7:35 AM 71.1 °F - 65.7 °F 83% 29.72 in 7.0 mi South 17.3 mph 24.2 mph N/A   Clear
7:55 AM 72.1 °F - 65.8 °F 80% 29.72 in 7.0 mi South 18.4 mph 28.8 mph N/A   Clear
8:15 AM 72.9 °F - 66.0 °F 79% 29.72 in 7.0 mi South 18.4 mph 28.8 mph N/A   Clear
8:35 AM 73.8 °F - 66.2 °F 77% 29.73 in 7.0 mi South 18.4 mph 29.9 mph N/A   Clear
8:55 AM 74.8 °F - 66.0 °F 74% 29.73 in 7.0 mi South 23.0 mph 28.8 mph N/A   Clear
9:15 AM 75.6 °F - 65.5 °F 71% 29.74 in 7.0 mi South 19.6 mph 29.9 mph N/A   Clear
9:35 AM 77.0 °F - 65.3 °F 67% 29.74 in 10.0 mi South 25.3 mph 33.4 mph N/A   Clear
9:55 AM 78.1 °F - 64.9 °F 64% 29.75 in 10.0 mi South 26.5 mph 38.0 mph N/A   Clear
10:15 AM 79.5 °F - 65.1 °F 61% 29.75 in 7.0 mi South 21.9 mph 28.8 mph N/A   Clear
10:35 AM 80.6 °F 82.3 °F 64.8 °F 58% 29.75 in 7.0 mi South 23.0 mph 31.1 mph N/A   Clear
10:55 AM 81.7 °F 83.3 °F 64.8 °F 56% 29.75 in 7.0 mi South 23.0 mph 31.1 mph N/A   Clear
11:15 AM 82.4 °F 83.9 °F 64.2 °F 54% 29.75 in 7.0 mi South 23.0 mph 32.2 mph N/A   Clear
11:35 AM 83.7 °F 85.1 °F 64.2 °F 52% 29.75 in 7.0 mi SSW 17.3 mph 25.3 mph N/A   Clear
11:55 AM 85.5 °F 86.3 °F 63.0 °F 47% 29.75 in 7.0 mi SSW 17.3 mph 23.0 mph N/A   Clear
12:15 PM 86.5 °F 87.0 °F 62.2 °F 44% 29.74 in 7.0 mi SW 15.0 mph 23.0 mph N/A   Clear
12:35 PM 87.6 °F 87.4 °F 60.4 °F 40% 29.73 in 7.0 mi SSW 11.5 mph 18.4 mph N/A   Clear
12:55 PM 88.2 °F 87.8 °F 60.3 °F 39% 29.73 in 7.0 mi SW 12.7 mph 18.4 mph N/A   Clear
1:15 PM 88.2 °F 86.9 °F 57.2 °F 35% 29.73 in 10.0 mi West 11.5 mph 16.1 mph N/A   Clear
1:35 PM 89.1 °F 88.0 °F 58.5 °F 35% 29.72 in 7.0 mi West 9.2 mph 17.3 mph N/A   Clear
1:55 PM 89.1 °F 88.2 °F 59.2 °F 36% 29.71 in 7.0 mi West 8.1 mph 16.1 mph N/A   Clear
2:15 PM 89.6 °F 88.9 °F 59.0 °F 36% 29.71 in 10.0 mi NW 12.7 mph 19.6 mph N/A   Clear
2:35 PM 88.9 °F 88.3 °F 59.5 °F 37% 29.71 in 7.0 mi NW 12.7 mph 16.1 mph N/A   Clear
2:55 PM 88.5 °F 87.8 °F 58.8 °F 37% 29.72 in 7.0 mi WNW 11.5 mph 21.9 mph N/A   Clear
3:15 PM 88.3 °F 87.6 °F 58.6 °F 37% 29.72 in 7.0 mi NW 18.4 mph 24.2 mph N/A   Clear
3:35 PM 88.5 °F 87.8 °F 59.4 °F 37% 29.72 in 7.0 mi NW 11.5 mph 24.2 mph N/A   Clear
3:55 PM 88.5 °F 88.1 °F 60.1 °F 38% 29.73 in 7.0 mi NNW 15.0 mph 20.7 mph N/A   Scattered Clouds
4:15 PM 87.8 °F 87.4 °F 60.3 °F 39% 29.73 in 7.0 mi NNW 16.1 mph 24.2 mph N/A   Scattered Clouds
4:35 PM 87.8 °F 87.4 °F 59.7 °F 39% 29.74 in 7.0 mi NNW 16.1 mph 23.0 mph N/A   Scattered Clouds
4:55 PM 87.3 °F 86.3 °F 58.3 °F 37% 29.75 in 7.0 mi North 15.0 mph 24.2 mph N/A   Scattered Clouds
5:15 PM 86.9 °F 85.9 °F 57.9 °F 37% 29.76 in 7.0 mi North 11.5 mph 18.4 mph N/A   Scattered Clouds
5:35 PM 85.8 °F 84.8 °F 57.6 °F 38% 29.77 in 7.0 mi North 11.5 mph 23.0 mph N/A   Scattered Clouds
5:55 PM 84.9 °F 84.1 °F 57.6 °F 39% 29.78 in 7.0 mi North 9.2 mph - N/A   Clear
6:15 PM 83.3 °F 82.9 °F 58.3 °F 42% 29.79 in 7.0 mi North 8.1 mph - N/A   Clear
6:35 PM 81.9 °F 81.9 °F 58.5 °F 45% 29.80 in 10.0 mi North 5.8 mph - N/A   Clear
6:55 PM 80.6 °F 81.0 °F 58.6 °F 47% 29.82 in 7.0 mi North 4.6 mph - N/A   Clear
7:15 PM 79.7 °F - 58.6 °F 48% 29.83 in 10.0 mi North 5.8 mph - N/A   Clear
7:35 PM 78.1 °F - 59.0 °F 52% 29.83 in 10.0 mi North 4.6 mph - N/A   Clear
7:55 PM 75.2 °F - 59.2 °F 57% 29.84 in 10.0 mi North 4.6 mph - N/A   Clear
8:15 PM 75.7 °F - 59.4 °F 57% 29.86 in 10.0 mi NNE 8.1 mph - N/A   Clear
8:35 PM 74.5 °F - 59.9 °F 60% 29.87 in 10.0 mi ENE 5.8 mph - N/A   Clear
8:55 PM 73.4 °F - 59.4 °F 61% 29.88 in 10.0 mi Calm Calm - N/A   Clear
9:15 PM 72.9 °F - 59.4 °F 62% 29.89 in 10.0 mi Calm Calm - N/A   Clear
9:35 PM 71.4 °F - 59.5 °F 66% 29.90 in 10.0 mi Calm Calm - N/A   Clear
9:55 PM 69.3 °F - 60.1 °F 72% 29.92 in 10.0 mi Calm Calm - N/A   Clear
10:15 PM 69.4 °F - 60.8 °F 74% 29.93 in 10.0 mi Calm Calm - N/A   Clear
10:35 PM 68.5 °F - 59.9 °F 74% 29.94 in 10.0 mi Calm Calm - N/A   Clear
10:55 PM 69.1 °F - 60.4 °F 74% 29.95 in 7.0 mi NNW 4.6 mph - N/A   Clear
11:15 PM 68.2 °F - 61.0 °F 78% 29.96 in 10.0 mi North 4.6 mph - N/A   Clear
11:35 PM 68.5 °F - 61.5 °F 78% 29.97 in 10.0 mi Calm Calm - N/A   Clear
11:55 PM 69.4 °F - 62.1 °F 77% 29.98 in 10.0 mi North 4.6 mph - N/A   Clear